Wind_Speed
23 23 22 20 18 17 16 16 14 13 13 13 13 12 11 10 10 11 12 12 11 10 10 10 10 10 10 11 11 10 9 8 7 8 8 8 8 8 8 8 8 8
23 23 23 22 20 18 17 16 15 14 13 13 12 11 11 10 10 11 12 12 12 11 11 10 10 10 10 10 10 10 10 9 9 9 9 9 9 9 9 9 9 9
24 24 24 23 21 19 18 17 16 15 14 13 12 11 11 11 11 11 11 12 12 11 11 11 11 11 10 10 10 11 11 10 9 10 10 10 10 10 10 10 10 10
24 24 24 23 21 20 18 17 17 16 15 14 13 12 12 12 12 12 11 12 12 11 12 12 11 11 11 11 11 12 11 10 10 10 11 11 11 11 11 11 11 10
24 24 24 23 22 20 19 18 18 17 16 15 14 14 13 13 13 13 12 12 12 12 12 12 12 12 12 12 12 12 12 11 10 10 11 11 11 11 12 12 12 11
23 24 24 24 23 21 20 19 19 18 17 16 16 15 14 14 15 14 13 13 13 13 13 13 13 13 13 13 13 12 12 11 11 11 12 11 11 11 12 12 12 11
23 23 24 24 24 22 21 20 19 18 17 17 16 16 15 15 15 15 15 14 14 14 14 13 13 13 13 13 13 13 12 12 11 11 12 12 11 11 11 11 12 12
22 23 24 25 24 23 22 21 19 18 17 17 16 15 15 15 15 15 15 15 15 14 14 13 13 13 13 14 14 13 13 13 12 12 12 12 12 11 11 11 11 12
22 22 24 25 25 24 23 21 20 18 17 17 17 16 16 16 15 15 15 16 15 15 14 14 14 13 13 14 14 14 14 13 13 13 12 12 12 11 11 11 12 12
22 22 23 25 25 25 23 22 20 19 18 17 17 17 17 16 16 15 16 16 16 15 15 14 14 14 13 14 15 15 14 14 14 14 13 12 12 11 11 12 12 13
22 22 23 24 25 25 24 22 21 20 19 18 18 18 17 17 16 16 16 16 16 15 15 14 14 14 14 14 15 15 15 15 15 14 13 13 12 12 12 12 12 13
23 23 23 23 24 24 24 23 22 21 20 19 18 18 18 18 17 17 17 17 16 14 14 14 14 15 15 15 15 15 16 16 16 15 14 13 14 14 14 14 14 13
24 24 23 23 23 24 24 24 23 22 22 21 20 19 19 19 18 17 17 17 16 15 15 15 15 15 15 15 15 16 17 17 17 16 15 15 15 16 16 16 15 15
25 24 24 23 23 23 24 24 24 23 23 23 22 22 21 21 20 18 18 18 18 17 16 16 16 16 16 16 16 16 17 18 18 18 18 18 18 18 18 17 17 17
25 24 24 23 22 22 22 23 23 23 23 23 23 23 22 22 21 19 18 18 19 18 18 17 17 17 17 16 16 16 17 17 18 19 20 19 20 20 20 20 19 19
26 24 24 23 21 21 21 21 22 22 22 22 23 23 23 22 22 21 20 20 20 19 19 19 19 18 18 18 19 20 19 19 18 19 20 20 20 21 21 21 21 20
27 24 23 23 22 21 20 20 21 21 22 22 23 23 23 23 22 22 22 21 21 21 20 20 21 21 22 23 23 22 22 21 20 20 20 20 21 21 21 21 22 21
24 21 20 22 22 21 20 19 18 20 21 21 21 22 23 23 23 23 23 22 22 22 22 22 23 22 22 23 22 20 19 20 21 22 22 21 21 21 21 21 22 23
20 18 18 19 20 20 19 18 18 19 20 20 20 21 21 22 23 23 23 23 23 23 24 24 23 23 23 24 23 20 19 20 22 24 23 22 22 22 22 23 23 24
18 18 18 18 19 19 18 19 20 21 20 20 20 21 21 22 23 24 24 24 24 24 25 25 24 23 22 23 24 23 22 23 24 25 24 24 23 22 22 23 24 25
19 18 18 18 18 18 18 20 21 21 20 20 21 21 21 20 21 23 23 22 21 22 24 25 23 22 23 23 25 26 26 26 27 26 24 24 24 23 23 24 25 25
19 17 17 15 14 14 15 17 19 20 21 22 22 22 22 22 22 23 22 22 22 23 23 23 23 23 24 24 25 27 28 29 29 28 26 25 25 25 25 25 25 26
18 17 17 14 11 11 12 14 16 19 22 23 24 25 24 24 24 24 24 24 25 25 24 24 23 24 25 26 26 27 28 29 30 29 29 28 27 26 26 26 26 27
16 17 17 16 15 14 14 17 18 19 21 23 24 25 25 26 26 25 25 26 26 26 25 25 25 26 27 28 28 29 29 30 31 31 31 30 29 27 27 27 28 29
13 12 11 12 14 13 14 18 20 18 18 19 18 19 20 21 22 22 23 24 25 25 24 24 25 26 27 29 30 31 31 31 32 32 31 31 30 29 29 29 29 30
10 11 12 12 12 11 11 14 16 16 17 17 17 17 16 15 16 17 18 19 20 21 22 22 23 24 25 26 27 29 31 31 31 31 31 31 31 31 31 32 31 31
Wind_Direction
227 227 227 229 232 233 235 240 241 240 238 238 239 240 239 236 231 229 232 231 230 232 235 241 244 246 249 251 254 257 259 260 259 263 268 273 275 274 275 275 271 270
228 230 231 232 234 236 237 241 245 247 245 243 244 244 243 241 235 233 235 233 232 234 237 241 244 247 250 253 255 258 259 257 257 260 261 266 272 273 275 276 273 270
230 231 233 234 236 238 240 243 247 249 251 250 247 246 245 243 239 238 239 237 235 237 240 242 243 244 248 249 251 255 256 255 255 258 260 261 265 269 271 270 270 270
231 233 235 237 237 240 243 245 247 250 254 254 250 249 248 245 242 241 241 240 237 238 243 246 244 244 245 245 247 251 253 253 252 255 260 260 262 266 268 267 267 267
233 235 236 237 238 240 243 246 247 250 254 254 251 249 249 248 247 246 246 243 240 240 243 247 248 246 246 246 247 250 253 254 253 255 259 260 261 264 265 264 263 262
233 235 235 236 237 238 242 246 249 252 253 253 251 250 251 251 251 251 251 248 246 245 244 246 248 248 249 250 251 254 256 256 256 258 262 263 264 264 262 260 258 259
233 234 234 234 235 237 241 245 249 253 254 254 253 251 251 253 254 254 254 253 251 250 250 249 248 249 251 254 256 258 260 260 259 260 265 270 270 266 262 260 259 260
234 234 233 234 236 237 240 243 247 252 254 255 255 252 251 253 254 255 255 256 255 254 254 253 252 252 252 255 259 261 262 262 261 261 264 269 271 268 264 263 263 263
235 234 233 235 237 238 239 241 245 249 252 255 256 256 255 255 256 256 256 256 256 256 256 256 257 256 253 255 258 261 262 262 261 261 261 263 265 266 266 264 263 262
235 234 234 235 237 239 241 241 243 246 250 253 255 257 258 258 258 257 255 254 255 256 257 258 258 257 255 256 256 259 261 261 261 262 261 260 260 262 265 264 261 261
234 234 234 235 237 239 241 242 243 245 247 250 252 254 256 258 257 255 253 253 254 255 257 257 257 257 257 258 259 260 260 259 259 259 259 260 261 262 263 260 259 260
235 234 234 234 236 237 239 241 242 243 244 245 247 249 252 253 252 250 249 249 249 252 256 258 259 260 260 261 263 263 261 258 253 252 255 259 261 263 263 261 259 259
234 233 233 233 233 233 235 238 239 241 242 242 244 245 248 248 246 245 245 246 247 248 253 258 262 264 264 265 266 266 265 261 253 250 254 259 261 261 260 260 258 257
233 232 231 231 232 231 233 237 239 241 242 243 244 244 244 244 242 241 243 247 248 249 253 256 260 263 265 266 268 268 268 265 260 257 260 263 263 260 258 257 256 255
232 231 231 232 232 232 234 237 240 242 244 246 246 246 245 243 240 239 243 248 248 249 254 257 260 263 264 267 270 273 273 271 268 265 265 267 266 262 258 255 252 251
235 232 231 232 233 234 235 238 240 242 244 247 248 249 248 247 244 242 243 248 250 251 255 259 263 265 265 266 268 270 273 273 272 270 268 268 268 265 261 256 252 250
238 235 234 234 233 236 239 241 244 245 246 247 248 248 248 247 246 245 244 246 249 252 255 259 263 265 267 267 267 268 270 271 272 272 271 270 270 268 266 261 254 250
240 240 241 239 237 240 244 247 250 250 249 250 249 246 245 244 244 244 244 244 245 249 254 258 261 265 268 269 269 270 273 274 273 271 270 271 272 271 270 266 259 253
243 244 244 244 244 247 248 250 254 254 251 251 249 245 243 245 245 244 245 246 249 254 258 260 261 264 266 267 266 267 272 275 273 271 270 270 271 270 270 270 265 258
239 240 240 244 249 253 253 252 256 259 256 254 252 248 247 247 249 249 249 250 254 259 262 263 264 265 266 265 263 262 265 269 270 270 270 269 270 270 270 271 269 264
232 238 244 246 247 249 249 249 255 261 262 262 260 257 254 252 253 256 256 256 259 262 264 265 266 267 267 266 263 261 261 263 266 267 267 267 269 270 271 272 269 264
230 238 250 252 251 252 252 253 257 261 264 266 266 263 260 257 257 258 261 264 265 264 265 266 266 267 268 268 266 264 262 262 263 265 264 265 267 269 271 270 265 260
228 236 244 249 255 262 266 266 265 264 265 265 264 263 261 259 258 259 262 266 266 263 263 266 267 267 267 266 265 264 264 263 262 263 263 263 265 267 269 268 263 259
219 228 237 243 249 255 262 263 262 262 263 261 260 262 263 262 262 263 263 264 264 263 263 265 266 265 266 266 265 263 263 262 261 260 260 261 261 262 263 263 262 259
210 222 237 252 260 260 259 258 260 265 268 267 268 271 272 271 270 270 269 267 267 267 266 265 264 265 266 267 266 265 263 262 261 260 259 259 259 259 258 258 259 259
234 246 254 266 277 280 272 263 265 275 282 284 282 281 281 279 276 274 273 270 269 268 267 265 265 267 268 269 269 268 267 265 262 260 260 260 260 259 259 258 257 258
Height
1584 1586 1587 1589 1590 1591 1592 1594 1595 1595 1596 1597 1597 1598 1598 1599 1600 1600 1601 1601 1602 1603 1603 1604 1605 1605 1606 1606 1607 1607 1607 1608 1608 1608 1609 1609 1609 1609 1609 1609 1609 1610
1583 1584 1586 1587 1589 1590 1591 1592 1594 1594 1595 1596 1597 1597 1598 1598 1599 1599 1600 1600 1601 1601 1602 1603 1603 1604 1605 1605 1606 1606 1606 1607 1607 1607 1608 1608 1608 1608 1608 1608 1608 1609
1581 1582 1584 1586 1587 1589 1590 1591 1593 1593 1594 1595 1596 1597 1597 1598 1598 1598 1599 1599 1600 1600 1601 1601 1602 1603 1603 1604 1604 1605 1605 1605 1606 1606 1606 1606 1606 1607 1607 1607 1607 1608
1579 1581 1582 1584 1586 1587 1589 1590 1591 1592 1593 1594 1595 1596 1596 1597 1597 1598 1598 1598 1599 1599 1600 1600 1601 1601 1602 1602 1603 1603 1603 1604 1604 1604 1604 1605 1605 1605 1606 1606 1606 1606
1577 1579 1581 1582 1584 1586 1587 1588 1589 1591 1592 1593 1593 1594 1595 1596 1596 1597 1597 1597 1598 1598 1598 1599 1599 1600 1600 1601 1601 1601 1602 1602 1603 1603 1603 1603 1604 1604 1604 1604 1605 1605
1576 1578 1579 1581 1582 1584 1585 1586 1588 1589 1590 1591 1592 1593 1594 1594 1595 1595 1596 1596 1597 1597 1597 1597 1598 1598 1598 1599 1599 1600 1600 1601 1601 1601 1602 1602 1602 1603 1603 1603 1603 1603
1574 1576 1577 1579 1581 1582 1583 1584 1586 1587 1588 1590 1590 1591 1592 1592 1593 1594 1594 1595 1595 1595 1596 1596 1596 1597 1597 1598 1598 1598 1599 1600 1600 1600 1600 1601 1601 1601 1602 1602 1602 1602
1572 1574 1576 1577 1579 1580 1581 1582 1584 1585 1587 1588 1589 1589 1590 1591 1591 1592 1593 1593 1594 1594 1594 1595 1595 1596 1596 1596 1597 1597 1598 1598 1598 1599 1599 1599 1600 1600 1600 1600 1600 1601
1570 1572 1573 1575 1576 1578 1579 1580 1582 1583 1585 1586 1587 1588 1589 1589 1590 1591 1591 1592 1592 1592 1593 1593 1594 1594 1595 1595 1595 1596 1596 1596 1597 1597 1597 1597 1598 1599 1599 1599 1599 1599
1567 1569 1571 1572 1574 1575 1577 1579 1580 1581 1583 1584 1585 1587 1587 1588 1589 1589 1590 1590 1590 1591 1591 1592 1592 1593 1593 1594 1594 1594 1595 1595 1595 1595 1596 1596 1597 1597 1598 1598 1598 1598
1565 1566 1568 1569 1571 1573 1575 1576 1578 1579 1581 1582 1583 1585 1585 1586 1587 1588 1588 1588 1589 1589 1590 1590 1591 1591 1592 1592 1593 1593 1593 1594 1594 1594 1594 1595 1595 1596 1596 1596 1597 1597
1562 1564 1565 1567 1569 1570 1572 1574 1575 1577 1578 1579 1581 1582 1583 1584 1585 1586 1586 1586 1587 1588 1588 1588 1589 1590 1590 1590 1591 1591 1592 1592 1592 1593 1593 1593 1594 1594 1595 1595 1595 1595
1559 1561 1563 1564 1566 1567 1569 1571 1572 1574 1575 1576 1578 1579 1580 1581 1582 1583 1584 1584 1585 1586 1586 1587 1587 1588 1588 1589 1589 1590 1590 1590 1591 1591 1591 1592 1592 1592 1593 1593 1593 1593
1557 1559 1560 1562 1564 1565 1567 1568 1570 1571 1573 1574 1575 1576 1577 1578 1579 1581 1582 1582 1583 1584 1584 1585 1585 1586 1586 1587 1587 1588 1588 1588 1589 1589 1589 1590 1590 1590 1590 1591 1591 1591
1555 1556 1558 1560 1562 1563 1565 1566 1568 1569 1571 1572 1573 1574 1575 1576 1577 1578 1579 1580 1581 1582 1583 1583 1583 1584 1585 1585 1586 1586 1586 1587 1587 1587 1587 1587 1587 1588 1588 1588 1589 1589
1553 1555 1557 1558 1560 1562 1563 1565 1566 1567 1568 1570 1571 1572 1573 1574 1575 1576 1577 1578 1579 1580 1581 1581 1582 1582 1583 1583 1583 1583 1583 1584 1584 1584 1585 1585 1585 1585 1585 1586 1586 1587
1552 1553 1555 1557 1558 1560 1561 1563 1564 1565 1566 1567 1569 1570 1571 1572 1573 1574 1575 1576 1576 1578 1578 1579 1579 1580 1580 1580 1580 1580 1580 1580 1581 1582 1582 1582 1582 1582 1582 1583 1584 1584
1552 1553 1554 1556 1557 1558 1560 1561 1563 1564 1565 1566 1566 1567 1568 1569 1570 1571 1572 1573 1574 1575 1576 1577 1577 1577 1578 1578 1578 1578 1578 1577 1578 1579 1579 1579 1580 1579 1579 1580 1580 1581
1551 1552 1553 1554 1555 1556 1558 1559 1560 1562 1563 1564 1564 1565 1566 1567 1568 1569 1570 1572 1573 1573 1574 1574 1575 1576 1576 1576 1575 1575 1575 1575 1575 1576 1577 1577 1577 1577 1577 1577 1577 1578
1548 1550 1551 1552 1553 1554 1555 1556 1558 1559 1561 1562 1562 1563 1564 1565 1566 1567 1568 1569 1570 1571 1571 1572 1572 1573 1573 1573 1573 1573 1573 1572 1573 1574 1574 1574 1574 1574 1574 1574 1575 1575
1544 1547 1548 1549 1550 1551 1552 1554 1556 1557 1558 1560 1560 1561 1562 1563 1563 1563 1564 1566 1568 1568 1569 1569 1570 1570 1570 1570 1570 1570 1570 1569 1569 1570 1571 1571 1571 1572 1571 1572 1572 1572
1541 1545 1548 1548 1548 1549 1551 1553 1554 1555 1556 1557 1558 1559 1560 1560 1561 1561 1562 1564 1565 1565 1566 1567 1567 1568 1567 1567 1567 1567 1567 1566 1566 1566 1567 1567 1568 1568 1568 1569 1569 1569
1541 1544 1546 1546 1547 1548 1550 1551 1552 1553 1554 1555 1556 1557 1558 1558 1559 1559 1561 1561 1561 1562 1562 1564 1565 1565 1564 1564 1564 1564 1563 1563 1563 1562 1562 1563 1564 1565 1565 1565 1566 1566
1541 1544 1544 1544 1545 1548 1550 1550 1550 1551 1552 1552 1553 1555 1556 1556 1556 1557 1558 1559 1558 1559 1560 1560 1561 1561 1561 1561 1560 1560 1560 1559 1559 1559 1559 1559 1560 1561 1562 1562 1562 1562
1540 1542 1542 1542 1544 1547 1549 1549 1549 1550 1550 1550 1551 1553 1554 1555 1555 1554 1555 1555 1556 1556 1557 1557 1557 1558 1558 1557 1557 1556 1556 1556 1555 1555 1555 1556 1556 1557 1558 1558 1558 1559
1539 1539 1540 1542 1544 1545 1547 1548 1548 1548 1548 1549 1550 1551 1553 1554 1554 1553 1552 1553 1554 1554 1554 1554 1554 1554 1554 1554 1554 1553 1553 1552 1552 1552 1552 1552 1553 1553 1554 1555 1555 1555